Location: Aspen Valley
(37.8274°N, 119.7713°W)
Time: 05:34:53
(UTC+00:00)

Daily predictions for brighter satellites

Satellite Brightness Start Highest point End
(mag) Time Altitude Azimuth Time Altitude Azimuth Time Altitude Azimuth
Cosmos 407 Rocket 4.2 03:42:55 10° SSW 03:48:04 59° WNW 03:53:11 10° N
Cosmos 1842 3.6 03:47:24 10° SSE 03:50:49 39° E 03:54:13 10° NNE
Tiangong -1.9 03:50:11 10° WNW 03:53:21 70° NNE 03:56:30 10° ESE
CZ-4 R/B 2.7 03:55:41 10° S 03:59:24 40° W 04:03:12 10° NNW
CZ-4B R/B 3.3 03:54:18 10° S 03:59:34 79° WSW 04:04:55 10° NNW
SeaSat 1 4.4 03:59:29 10° E 04:02:24 16° NE 04:05:19 10° NNE
Cosmos 1933 Rocket 4.5 04:00:32 10° NNE 04:04:32 33° ENE 04:08:33 10° SE
SPOT 5 3.8 04:01:39 10° SE 04:05:13 26° ENE 04:08:51 10° NNE
Cosmos 1954 Rocket 4.0 04:00:06 10° S 04:05:22 75° ESE 04:10:39 10° NNE
Cosmos 1092 Rocket 4.4 03:59:31 10° SSW 04:05:50 73° W 04:12:12 10° N
SL-24 R/B 4.2 04:04:49 10° SSE 04:09:41 70° ENE 04:13:57 10° N
Cosmos 1707 2.6 04:08:51 10° S 04:12:23 57° E 04:15:56 10° NNE
ASTRO E2 3.9 04:11:05 10° SSW 04:13:32 18° SSE 04:15:14 13° SE
Cosmos 2360 Rocket 4.2 04:10:58 10° NNE 04:14:00 14° NE 04:17:01 10° E
Meteor 2-12 Rocket 4.5 04:08:48 10° S 04:14:55 74° E 04:21:04 10° N
Resurs 01 Rocket 2.1 04:10:47 10° S 04:15:07 60° W 04:19:29 10° NNW
BREEZE-M DEB (TANK) 3.7 04:13:19 10° WSW 04:15:31 36° NNW 04:17:58 10° NE
Cosmos 676 Rocket 4.0 04:11:54 10° SSW 04:17:12 78° ESE 04:22:31 10° NNE
PSLV R/B 3.7 04:15:41 10° S 04:19:13 73° WSW 04:22:43 10° NNW
RESURS DK-1 4.3 04:19:48 10° NNE 04:22:27 16° NE 04:25:04 10° E
Cosmos 2082 Rocket 4.0 04:20:44 10° SW 04:25:57 36° WNW 04:31:11 10° N
SL-16 R/B 3.1 04:21:45 10° N 04:26:57 35° ENE 04:31:06 15° ESE
Cosmos 1674 3.6 04:24:16 10° SSW 04:27:35 44° W 04:30:55 10° N
SJ 16-02 3.2 04:27:06 12° ESE 04:27:40 12° E 04:29:27 10° ENE
SL-27 R/B 3.8 04:31:11 14° E 04:31:11 14° E 04:32:25 10° ENE
Cosmos 2333 Rocket 4.0 04:27:14 10° N 04:31:10 18° NE 04:35:03 10° E
Cosmos 2369 4.1 04:26:19 10° NNW 04:31:59 63° WSW 04:37:36 10° S
CZ-4C R/B 3.3 04:27:56 10° NNE 04:32:04 74° E 04:36:09 10° S
ERS-1 Rocket 3.8 04:29:37 15° SE 04:33:08 35° ENE 04:37:41 10° N
Terra 2.8 04:35:24 17° ESE 04:38:16 32° ENE 04:42:26 10° N
Cosmos 841 Rocket 4.3 04:34:26 10° N 04:39:21 38° ENE 04:42:37 19° SE
Cosmos 1763 Rocket 3.9 04:34:56 10° NNW 04:40:04 61° WSW 04:44:58 11° S
Atlas Centaur 2 3.3 04:33:22 10° WSW 04:40:58 49° S 04:47:22 16° ESE
MetOp-B 4.2 04:36:45 15° SSE 04:41:14 69° ENE 04:46:34 10° N
Cosmos 1300 4.2 04:44:01 10° NNE 04:46:37 19° ENE 04:47:23 18° E
Spot 2 Rocket 4.3 04:44:22 19° SE 04:47:19 36° ENE 04:51:56 10° N
Cosmos 1400 Rocket 2.6 04:50:13 16° S 04:53:16 73° E 04:57:07 10° NNE
Cosmos 1441 Rocket 3.0 04:49:51 10° N 04:53:28 84° W 04:55:39 23° S
USA 234 3.3 04:48:14 10° NE 04:54:47 85° NW 05:01:19 10° SW
Cosmos 1733 Rocket 4.4 04:53:03 10° NNE 04:56:44 25° ENE 04:58:06 22° ESE
Cosmos 1908 3.3 04:54:18 10° NNW 04:57:53 68° W 05:00:08 21° S
ARGOS Delta rocket 3.7 04:55:11 18° S 04:58:28 81° W 05:02:52 10° NNW
ATLAS CENTAUR R/B 0.9 04:55:06 10° SSW 04:58:33 83° WNW 05:02:06 10° NNE
Cosmos 1356 Rocket 3.8 04:58:19 28° SSE 05:00:04 44° E 05:04:04 10° NNE
IRS-1A Rocket 4.2 04:57:26 20° SSE 05:01:20 84° ENE 05:06:52 10° NNW
Okean-O 3.5 04:57:59 12° S 05:01:51 45° W 05:06:06 10° NNW
Cosmos 1417 Rocket 4.4 04:57:20 10° N 05:03:33 87° E 05:08:06 19° S
Cosmos 1980 Rocket 4.2 05:02:13 10° NW 05:06:31 22° W 05:10:47 10° SSW
Cosmos 2322 Rocket 2.6 05:03:41 10° NNW 05:09:11 49° ENE 05:11:59 27° SE
USA 245 3.0 05:09:32 40° SSE 05:10:42 79° ENE 05:14:51 10° N
Meteor 2-10 Rocket 3.7 05:05:19 10° N 05:10:46 60° ENE 05:13:19 30° SSE
Ariane Rocket 3.2 05:09:34 29° SE 05:12:03 58° ENE 05:17:02 10° N
Meteor 1-12 Rocket 4.4 05:06:32 10° N 05:12:32 65° E 05:15:46 28° SSE
Meteor 1-22 Rocket 4.2 05:06:52 10° N 05:12:37 85° E 05:16:16 25° S
Cosmos 1315 Rocket 4.4 05:13:43 20° E 05:13:43 20° E 05:16:20 10° NE
Cosmos 1953 4.5 05:14:53 10° NE 05:16:25 12° ENE 05:16:25 12° ENE
Cosmos 2228 Rocket 3.0 05:16:47 29° S 05:19:06 78° E 05:23:41 10° N
Landsat 4 3.6 05:19:36 50° ESE 05:20:05 56° ENE 05:23:27 10° N
Okean O Rocket 4.2 05:18:08 10° SW 05:20:34 15° W 05:23:01 10° WNW
BlueWalker 3 3.4 05:22:32 22° ENE 05:22:32 22° ENE 05:24:09 10° ENE
Cosmos 1869 Rocket 4.1 05:16:53 10° NNW 05:21:15 56° W 05:23:48 24° SSW
Cosmos 2278 4.0 05:16:43 10° NNW 05:22:21 60° WSW 05:25:33 25° S
Cosmos 1850 Rocket 4.4 05:21:55 10° SSW 05:27:06 65° WNW 05:32:17 10° NNE
MOS 1 Rocket 3.6 05:26:15 32° SSE 05:28:49 87° E 05:34:10 10° N
Tiangong -0.3 05:27:19 10° W 05:29:15 22° SW 05:29:15 22° SW
Cosmos 1241 Rocket 4.3 05:24:53 10° SSW 05:30:56 71° ESE 05:37:07 10° NNE
Meteor 1-21 4.2 05:28:09 26° S 05:31:34 81° E 05:37:24 10° N
Cosmos 2219 Rocket 3.4 05:28:15 10° N 05:33:14 31° ENE 05:35:22 24° E
SL-14 R/B 3.8 05:35:08 30° SW 05:36:44 53° W 05:40:27 10° N
Spot 1 4.2 05:33:05 10° NNE 05:37:44 73° ESE 05:39:20 42° S
ATLAS 2AS CENTAUR R/B 2.9 05:31:32 10° NNW 05:38:12 56° NE 05:41:14 32° ESE
Cosmos 968 Rocket 3.6 05:35:07 17° SSW 05:39:01 74° WNW 05:44:13 10° NNE
SeaSat 1 2.5 05:37:33 40° S 05:39:18 72° WSW 05:44:13 10° NNW
MetOp-A 4.4 05:38:18 38° ESE 05:39:47 50° ENE 05:44:51 10° N
SPOT 3 Rocket 3.5 05:41:18 39° S 05:43:16 77° WSW 05:48:27 10° NNW
Cosmos 1455 3.9 05:41:41 10° NNE 05:43:39 19° ENE 05:43:39 19° ENE
Landsat 5 3.3 05:40:24 10° NNE 05:44:29 81° ESE 05:45:11 60° S
Cosmos 1346 Rocket 2.5 05:41:55 10° N 05:45:47 84° W 05:46:06 73° SSW
Okean 3 3.3 05:46:51 59° SSW 05:47:35 86° W 05:51:46 10° N
Cosmos 1703 Rocket 4.5 05:48:52 34° E 05:48:52 34° E 05:52:37 10° NNE
Cosmos 1862 Rocket 3.8 05:47:52 38° SSW 05:49:24 65° W 05:53:48 10° N
Cosmos 1814 Rocket 4.1 05:51:42 10° NNW 05:56:59 66° ENE 05:58:07 51° SE
Cosmos 2360 Rocket 2.1 05:53:01 10° NNW 05:58:43 84° WSW 06:00:15 50° SSE
RESURS DK-1 3.2 05:56:31 10° NW 06:00:18 38° WSW 06:00:39 37° WSW
SJ 16-02 2.1 06:03:48 30° SW 06:05:31 48° WNW 06:09:42 10° N
Cosmos 1244 Rocket 4.4 06:05:47 42° S 06:08:07 89° W 06:14:28 10° N
COSMOS 2455 3.4 06:10:52 39° ESE 06:10:52 39° ESE 06:16:06 10° NE
Nadezhda 2 Rocket 4.5 06:08:21 42° S 06:10:44 90° NE 06:17:12 10° N
SL-16 R/B 3.6 06:06:02 10° NW 06:10:52 30° WSW 06:12:57 23° SW
Terra 3.6 06:14:06 19° SW 06:15:50 23° W 06:19:36 10° NW
Cosmos 2333 Rocket 2.3 06:10:13 10° NNW 06:15:56 66° WSW 06:17:10 52° SSW
CZ-2C R/B 3.8 06:16:13 10° NNE 06:20:09 60° ENE 06:20:09 60° ENE
Meteor 1-4 Rocket 4.5 06:24:56 21° WNW 06:24:56 21° WNW 06:26:47 10° NNW
Cosmos 839 Rocket 3.9 06:19:52 10° NNW 06:26:30 84° ENE 06:27:50 58° SE
Atlas Centaur 2 3.7 06:22:35 10° W 06:29:34 33° SSW 06:29:34 33° SSW
ARIANE 5 R/B 3.0 06:30:35 51° NE 06:30:35 51° NE 06:34:23 10° N
CENTAUR R/B 4.4 06:33:07 12° E 06:33:07 12° E 06:33:53 10° ENE
Okean 1-7 3.9 06:32:51 40° W 06:33:17 42° W 06:37:24 10° N
Cosmos 1709 Rocket 4.4 06:33:06 45° ESE 06:33:44 46° E 06:39:46 10° NNE
Cosmos 2237 Rocket 4.1 06:30:14 10° N 06:34:03 18° NE 06:36:08 15° E
DNEPR-1 R/B 3.9 06:28:56 10° NNW 06:35:14 87° ENE 06:35:44 75° SE
Cosmos 2227 Rocket 4.2 06:37:23 15° E 06:37:23 15° E 06:39:20 10° ENE
Cosmos 2322 3.8 06:32:53 10° NNW 06:38:31 60° ENE 06:39:08 56° E
CZ-4C R/B 2.5 06:43:38 43° ENE 06:43:38 43° ENE 06:47:17 10° NE
Cosmos 1908 Rocket 4.2 06:45:14 10° NNW 06:48:57 50° WNW 06:48:57 50° WNW
Cosmos 1486 Rocket 4.0 06:50:07 69° ENE 06:50:07 69° ENE 06:54:54 10° NNE
GP-B 3.5 06:46:29 10° N 06:50:24 60° NW 06:50:24 60° NW
Cosmos 1375 Rocket 4.4 06:44:30 10° NNW 06:51:08 89° ENE 06:52:09 66° SSE
Cosmos 1953 3.7 06:48:52 10° NNW 06:51:31 32° WNW 06:51:31 32° WNW
Cosmos 1782 Rocket 4.1 06:48:08 10° N 06:51:36 56° NNE 06:51:36 56° NNE
Cosmos 2322 Rocket 3.9 06:48:39 10° NW 06:52:48 21° W 06:53:48 20° WSW
Cosmos 2297 Rocket 2.6 06:56:04 49° E 06:56:04 49° E 07:00:51 10° NNE
Spot 4 4.4 06:56:33 50° ENE 06:56:33 50° ENE 07:00:51 10° N
BlueWalker 3 4.1 06:56:37 15° WNW 06:58:51 24° NNW 07:01:59 10° NNE
H-2A R/B 4.4 07:02:07 10° NE 07:03:04 14° ENE 07:03:04 14° ENE
Cosmos 1300 Rocket 4.2 07:04:44 10° N 07:08:01 51° NNW 07:08:01 51° NNW
Cosmos 2098 Rocket 4.4 07:05:01 10° N 07:11:22 48° ENE 07:11:59 47° E
Cosmos 304 Rocket 4.2 07:15:01 59° NNE 07:15:01 59° NNE 07:18:52 10° NNE
Cosmos 2219 Rocket 3.2 07:12:03 10° NW 07:17:04 35° WSW 07:17:04 35° WSW
Meteor 2-5 Rocket 3.7 07:18:28 77° E 07:18:31 77° E 07:24:22 10° NNE
ALOS 2 3.4 07:21:24 48° NNE 07:21:24 48° NNE 07:24:46 10° N
COSMOS 2428 2.7 07:15:13 10° NNW 07:20:46 75° W 07:20:46 75° W
Cosmos 2263 Rocket 4.2 07:28:45 15° E 07:28:45 15° E 07:30:53 10° ENE
ATLAS 2AS CENTAUR R/B 3.9 07:23:19 10° WNW 07:28:34 25° WSW 07:28:39 25° WSW
USA 281 3.3 07:28:43 55° SW 07:29:14 57° WSW 07:35:42 10° NNW
Cosmos 158 Rocket 4.3 07:24:17 10° NNW 07:28:50 58° WNW 07:28:50 58° WNW
H-2A R/B 3.8 07:34:34 37° NW 07:34:34 37° NW 07:37:28 10° NNW
Cosmos 2181 Rocket 3.9 07:37:08 10° N 07:43:17 70° E 07:43:33 69° E
Cosmos 2074 Rocket 4.1 07:48:37 62° E 07:48:46 62° E 07:54:53 10° NNE
Cosmos 773 Rocket 4.3 07:47:57 10° NNW 07:52:17 61° NW 07:52:17 61° NW
COSMOS 2455 4.2 07:53:57 24° W 07:56:30 32° NW 08:01:53 10° N
SL-4 R/B 3.5 07:57:15 10° NW 08:00:05 36° N 08:00:05 36° N
SL-12 R/B(2) 4.1 08:07:12 60° SSW 08:08:59 84° ESE 08:18:16 10° NE
NOSS 0 Rocket 4.4 08:04:00 10° NW 08:09:30 46° W 08:09:30 46° W
SL-16 R/B 3.5 08:07:01 10° N 08:12:07 33° ENE 08:13:49 28° E
Cosmos 2082 4.4 08:18:42 43° E 08:18:42 43° E 08:23:26 10° NE
Cosmos 2237 Rocket 2.4 08:12:59 10° NNW 08:17:55 59° WNW 08:17:55 59° WNW
Cosmos 2227 Rocket 2.4 08:19:10 60° WNW 08:19:18 60° WNW 08:24:56 10° NNE
CENTAUR R/B 2.3 08:20:13 73° WNW 08:20:27 74° NW 08:27:06 10° NNE
Cosmos 1295 Rocket 4.3 08:20:20 82° WSW 08:20:31 84° W 08:26:40 10° N
GEOS 3 Rocket 3.6 08:17:15 10° NNE 08:22:06 75° NNW 08:22:06 75° NNW
Okean 1 Rocket 4.0 08:18:26 10° N 08:21:32 46° N 08:21:32 46° N
Meteor 2-11 Rocket 4.2 08:28:07 83° SSE 08:28:20 87° E 08:34:27 10° N
Nadezhda 3 Rocket 3.9 08:23:48 10° N 08:30:05 75° E 08:30:36 70° SE
CZ-4C R/B 4.2 08:28:39 12° WNW 08:31:21 17° NW 08:34:55 10° N
Nimbus 7 Rocket 4.5 08:25:28 10° NNE 08:31:30 64° ESE 08:31:47 63° ESE
Cosmos 1980 4.4 08:26:26 10° NW 08:30:53 42° W 08:30:53 42° W
Cosmos 2184 Rocket 4.2 08:34:00 57° WSW 08:34:32 59° W 08:40:50 10° N
Cosmos 2297 Rocket 4.0 08:37:49 19° W 08:39:42 22° NW 08:44:01 10° N
Cosmos 1937 Rocket 4.2 08:40:11 43° E 08:40:11 43° E 08:44:46 10° NNE
H-2A R/B 3.5 08:36:57 10° N 08:39:52 30° NW 08:39:52 30° NW
Cosmos 1975 Rocket 4.0 08:43:03 45° NE 08:43:03 45° NE 08:46:22 10° NNE
Aureole 1 Rocket 4.3 08:43:40 33° NNE 08:43:40 33° NNE 08:46:09 10° NNE
Cosmos 2219 3.2 08:43:27 71° WNW 08:43:31 71° WNW 08:49:08 10° NNE
Meteor 1-21 Rocket 4.1 08:44:03 85° WSW 08:44:09 86° W 08:49:53 10° N
Cosmos 1898 Rocket 3.6 08:45:27 66° ENE 08:45:27 66° ENE 08:50:09 10° NNE
Cosmos 292 Rocket 4.1 08:52:02 63° NNW 08:52:02 63° NNW 08:56:12 10° NNE
Cosmos 2154 Rocket 4.3 08:51:08 51° W 08:51:40 53° W 08:57:47 10° N
Cosmos 2327 Rocket 4.2 08:54:18 76° SW 08:54:47 83° W 09:00:54 10° N
Helios 1A Rocket 4.1 08:58:50 37° NE 08:58:50 37° NE 09:01:38 10° N
Cosmos 1455 Rocket 3.6 08:54:30 10° N 08:58:04 58° N 08:58:04 58° N
BREEZE-M DEB (TANK) 3.9 08:56:24 10° NW 09:00:37 28° NNE 09:00:46 28° NNE
Resurs 1-4 Rocket 3.7 08:58:07 10° NE 09:02:18 24° E 09:03:13 22° ESE
Cosmos 1461 3.9 09:04:08 41° NNE 09:04:08 41° NNE 09:06:46 10° NNE
Cosmos 1025 Rocket 4.4 09:06:29 31° NW 09:06:29 31° NW 09:09:30 10° NNW
SL-8 Rocket 3.9 09:06:26 62° SSE 09:07:23 73° E 09:13:33 10° N
NOSS 3-2 (A) 3.7 09:09:04 44° WNW 09:09:51 47° NW 09:15:32 10° NNE
Cosmos 2263 Rocket 2.3 09:10:25 58° W 09:10:50 59° WNW 09:16:21 10° NNE
NOSS 3-2 (C) 2.9 09:16:18 82° SSE 09:16:28 84° ESE 09:22:18 10° NE
Cosmos 962 Rocket 4.5 09:15:53 61° SW 09:16:50 70° W 09:23:10 10° N
Meteor 2-1 Rocket 4.3 09:10:56 10° N 09:16:51 77° E 09:17:52 61° SSE
Cosmos 1680 Rocket 4.2 09:16:31 10° N 09:21:33 48° ENE 09:23:20 34° ESE
Cosmos 1869 4.2 09:21:32 10° N 09:24:17 44° NNE 09:24:17 44° NNE
USA 267 4.4 09:20:17 10° ENE 09:25:41 27° SE 09:26:45 26° SE
Cosmos 1959 Rocket 4.4 09:25:42 57° S 09:27:06 83° E 09:33:27 10° N
Cosmos 1818 4.1 09:23:40 10° NNW 09:29:04 57° ENE 09:32:05 26° SE
Cosmos 1437 Rocket 4.2 09:29:32 29° E 09:29:32 29° E 09:32:40 10° NNE
Cosmos 1844 Rocket 3.6 09:29:05 33° SE 09:30:11 36° ESE 09:35:14 10° NE
COBE Rocket 3.8 09:32:31 10° N 09:37:42 83° WNW 09:38:16 71° SW
Cosmos 2341 Rocket 4.2 09:41:06 47° WSW 09:42:17 54° W 09:48:21 10° N
BREEZE-M DEB (TANK) 3.4 09:45:16 31° ENE 09:45:16 31° ENE 09:48:23 10° ESE
IDEFIX/ARIANE 42P 2.5 09:43:10 10° NNE 09:48:26 88° ESE 09:49:25 60° S
SL-16 R/B 3.1 09:51:08 10° NW 09:55:38 32° W 09:55:38 32° W
MOZ.5/SAFIR/RUBIN 5/SL-8 3.8 09:56:28 59° WSW 09:56:31 59° WSW 10:01:06 10° NNW
Cosmos 1606 4.0 09:55:01 10° NNW 09:57:09 29° NW 09:57:09 29° NW
CZ-2C R/B 3.3 09:53:12 10° NNE 09:58:31 63° E 10:00:02 43° SSE
CZ-2C R/B 2.7 09:59:28 34° SSE 10:01:47 75° ENE 10:07:09 10° N
Cosmos 2228 2.9 10:02:13 10° NNW 10:06:28 63° W 10:06:35 63° WSW
CZ-2D R/B 2.0 10:01:17 10° NNE 10:06:38 90° ESE 10:08:12 47° SSW
MSX 3.8 10:03:35 10° N 10:09:18 72° WNW 10:11:12 43° SW
Cosmos 1943 3.1 10:04:18 10° NNW 10:09:55 87° WSW 10:12:58 28° SSE
Cosmos 1544 Rocket 4.2 10:06:33 10° NNW 10:10:31 40° W 10:10:31 40° W
H-2A R/B 3.5 10:07:19 10° N 10:11:13 54° WNW 10:11:22 54° W
Cosmos 1821 Rocket 3.9 10:09:42 42° SSW 10:11:49 71° W 10:17:57 10° N
Cosmos 1867 3.6 10:10:54 46° SW 10:12:30 72° WNW 10:17:59 10° NNE
FENGYUN 3A 3.8 10:08:11 10° NNE 10:13:34 67° ESE 10:15:51 35° S
AQUA 4.2 10:13:09 10° NNE 10:17:49 58° E 10:19:42 34° SSE
USA 238 DEB 3.7 10:20:08 35° WSW 10:22:47 64° NW 10:29:21 10° NNE
USA 238 3.6 10:20:10 35° WSW 10:22:49 64° NW 10:29:24 10° NNE
ALOS 3.0 10:19:24 10° NNE 10:23:51 47° E 10:26:09 25° SSE
ADEOS II 2.0 10:20:44 10° NNE 10:26:00 90° NW 10:28:15 36° SSW
NPP 4.3 10:21:51 10° N 10:26:54 42° WNW 10:28:41 32° WSW
BREEZE-M DEB (TANK) 4.1 10:30:15 25° SSE 10:31:17 30° ESE 10:37:26 10° ENE
ATLAS 5 CENTAUR R/B 2.9 10:37:31 16° SE 10:38:36 18° ESE 10:40:58 10° ENE
Cosmos 921 Rocket 2.8 10:36:52 10° NNW 10:41:06 86° WSW 10:43:33 24° SSE
Resurs 1-4 Rocket 2.8 10:37:17 10° N 10:42:09 39° WNW 10:44:17 27° WSW
Iridium 2 2.7 10:45:17 70° NNE 10:45:17 70° NNE 10:47:30 10° N
Meteor 1-28 Rocket 2.9 10:44:34 32° SSE 10:46:07 90° WSW 10:49:40 10° NNW
Cosmos 1606 Rocket 3.5 10:41:49 10° NNW 10:46:13 67° W 10:48:20 29° S
Cosmos 1844 4.0 10:43:33 29° SW 10:46:21 57° WNW 10:52:05 10° NNE
Cosmos 2058 3.2 10:46:01 23° SSE 10:48:22 60° E 10:52:23 10° NNE
Cosmos 1934 Rocket 4.0 10:44:13 22° S 10:48:34 87° W 10:54:59 10° N
IRAS Rocket 4.4 10:44:53 10° NNE 10:50:22 70° ESE 10:54:25 19° S
SL-16 R/B 2.5 10:45:13 10° SSE 10:51:29 88° W 10:57:45 10° NNW
Cosmos 2123 Rocket 4.0 10:46:09 10° N 10:52:23 86° E 10:58:36 10° S
NOSS 2-2 (C) 3.8 10:54:31 26° S 10:55:55 39° ESE 10:58:52 10° NE
Cosmos 2298 Rocket 4.4 10:56:46 17° S 11:00:51 61° ESE 11:06:06 10° NNE
Cosmos 1726 Rocket 3.6 10:56:52 10° NNW 11:01:14 62° W 11:04:06 20° S
Cosmos 1238 Rocket 3.4 11:01:06 10° N 11:04:12 42° E 11:07:01 10° SSE
NOSS 2-2 (D) 4.3 11:03:32 17° S 11:05:39 30° ESE 11:08:31 10° NE
USA 267 3.3 11:02:28 10° NE 11:09:00 75° NW 11:14:06 18° SW
Delta 2 Rocket 3.6 11:08:38 23° WSW 11:10:41 42° SSW 11:14:44 10° ESE
SAR-Lupe-1 4.1 11:08:15 10° N 11:11:48 64° WNW 11:13:50 24° SSW
METEOR-M 4.4 11:07:04 10° NNE 11:12:25 70° ESE 11:17:41 10° S
NOSS 2-3 (E) 4.0 11:10:11 17° S 11:12:36 41° ESE 11:16:08 10° NE
Cosmos 1844 Rocket 3.9 11:10:44 17° WSW 11:14:03 29° WNW 11:18:52 10° N
NOSS 2-3 (C) 3.8 11:15:42 17° S 11:18:14 48° ESE 11:21:50 10° NE
SEDSat Delta rocket 3.5 11:19:21 21° SW 11:21:19 33° S 11:24:57 10° ESE
H-2A R/B 4.3 11:18:03 10° NE 11:22:04 22° E 11:25:58 10° SE
Cosmos 724 4.2 11:17:11 10° NNW 11:23:01 86° WSW 11:28:53 10° SSE
ASTEX 1 4.3 11:23:12 18° SW 11:25:58 30° W 11:30:13 10° NNW
IRS-1D 4.3 11:21:52 10° NNE 11:26:52 49° E 11:31:43 10° S
Cosmos 1544 2.6 11:26:12 24° SW 11:27:23 43° W 11:29:55 10° N
Orbus 7S? 4.4 11:24:26 10° WNW 11:27:53 38° SW 11:34:41 10° SSE
Cosmos 1602 Rocket 4.4 11:26:51 10° S 11:31:09 52° E 11:35:29 10° NNE
CZ-2C R/B 2.4 11:28:30 10° NNE 11:33:04 73° ESE 11:37:39 10° S
Cosmos 1271 Rocket 3.7 11:31:19 10° SSE 11:34:42 42° E 11:38:07 10° NNE
Lacrosse 5 3.8 11:31:50 10° SSE 11:35:36 21° ESE 11:39:23 10° ENE
Envisat 3.0 11:30:46 10° N 11:35:49 67° WNW 11:40:49 10° SSW
Cosmos 2278 Rocket 3.6 11:34:04 10° S 11:39:10 36° ESE 11:44:18 10° NE
Cosmos 1862 4.2 11:36:31 10° SSE 11:40:09 46° E 11:43:48 10° NNE
UNK 4.2 11:37:41 10° S 11:42:00 40° W 11:46:20 10° NNW
Cosmos 2058 Rocket 3.5 11:38:18 10° NNW 11:42:28 41° W 11:46:33 10° SSW
CZ-2C R/B 4.5 11:40:57 10° WSW 11:42:37 12° W 11:44:21 10° WNW
Cosmos 1758 Rocket 3.6 11:39:12 10° S 11:43:38 86° E 11:48:03 10° N
CZ-2D R/B 4.2 11:44:23 10° NW 11:45:47 11° WNW 11:47:11 10° WNW
YAOGAN 6 2.2 11:42:52 10° N 11:46:03 85° WNW 11:49:13 10° SSW
USA 276 4.1 11:48:46 10° S 11:50:53 18° SE 11:52:57 10° E
Cosmos 1812 4.1 11:48:41 10° NW 11:51:16 19° W 11:53:51 10° SW
